Voltar ao catálogo

STARLINK-35984

AtivoComunicaçõesVLEO
NORAD 66814·PAYLOAD·🇺🇸 United States

Lançado Dec 1, 2025 de Cape Canaveral Space Force Station

Loading…

Próximas Passagens (próximas 24 horas)

TLE

AtualizadoSource: CelesTrak SupGP

Época: Sep 14, 2026, 21:07 UTC

1 66814C 25278Z   26257.88034722 -.00047373  00000+0 -17161-2 0  2575
2 66814  42.9988 125.6334 0001137 280.3518 187.1494 15.27598203    17

Acompanhe STARLINK-35984 em tempo real com AllMySat

Download on the App Store